Location: D�derode
(51.8092°N, 10.1065°E)
Time: 07:02:06
(UTC+00:00)

Cosmos 1603 - Pass Details

Date: 01 December 2020
Orbit: 831 x 859 km, 71.0° (Epoch: 23 January)

Event Time Altitude Azimuth Distance (km) Brightness Sun altitude
Rises 17:46:54 0° 204° (SSW) 3,375 7.3 -22.9°
Reaches altitude 10° 17:49:20 10° 203° (SSW) 2,441 6.4 -23.2°
Maximum altitude 17:54:56 80° 118° (ESE) 852 3.5 -24.1°
Enters shadow 17:56:14 54° 43° (NE) 1,006 3.8 -24.3°
